[TLELIST] Archives

 

[list_settings.list_name] Current TLEs

November 25th 2013 PST

HST 1 20580U 90037B 13328.20022976 .00003854 00000-0 25840-3 0 3805 2 20580 028.4713 303.4526 0002960 255.4008 209.0350 15.04245392 93811 ISS (ZARYA) 1 25544U 98067A 13329.42466128 .00017686 00000-0 31123-3 0 971 2 25544 051.6510 029.4863 0001151 103.9334 008.5506 15.50538163859714 CXO 1 25867U 99040B 13331.89355216 -.00000557 00000-0 00000+0 0 9795 2 25867 076.2758 330.3214 8388940 276.1917 000.0127 00.37802716 11156 ____________________________________________________________________ These 2-Line ...Continue Reading

[list_settings.list_name] Current TLEs

November 24th 2013 PST

HST 1 20580U 90037B 13328.20022976 .00003854 00000-0 25840-3 0 3805 2 20580 028.4713 303.4526 0002960 255.4008 209.0350 15.04245392 93811 ISS (ZARYA) 1 25544U 98067A 13328.47259259 .00017611 00000-0 31032-3 0 900 2 25544 051.6507 034.2048 0001144 105.6434 089.0030 15.50503497859562 CXO 1 25867U 99040B 13329.24875216 -.00000489 00000-0 00000+0 0 9781 2 25867 076.2631 330.4698 8389315 276.2217 359.9757 00.37798923 11142 ____________________________________________________________________ These 2-Line ...Continue Reading

[list_settings.list_name] Current TLEs

November 23rd 2013 PST

HST 1 20580U 90037B 13326.41290074 .00003997 00000-0 26852-3 0 3792 2 20580 028.4716 315.1805 0002873 237.6204 248.8513 15.04234576 93541 ISS (ZARYA) 1 25544U 98067A 13327.43717593 .00017314 00000-0 30565-3 0 859 2 25544 051.6509 039.3377 0001136 107.1644 064.2293 15.50464898859406 CXO 1 25867U 99040B 13329.24875216 -.00000489 00000-0 00000+0 0 9781 2 25867 076.2631 330.4698 8389315 276.2217 359.9757 00.37798923 11142 ____________________________________________________________________ These 2-Line ...Continue Reading

[list_settings.list_name] Current TLEs

November 22nd 2013 PST

HST 1 20580U 90037B 13325.35559810 .00004013 00000-0 26967-3 0 3786 2 20580 028.4718 322.1197 0002980 222.9019 286.7263 15.04228535 93388 ISS (ZARYA) 1 25544U 98067A 13326.45996880 .00017436 00000-0 30811-3 0 790 2 25544 051.6510 044.1805 0001147 104.0460 009.3574 15.50430739859254 CXO 1 25867U 99040B 13329.24875216 -.00000489 00000-0 00000+0 0 9781 2 25867 076.2631 330.4698 8389315 276.2217 359.9757 00.37798923 11142 ____________________________________________________________________ These 2-Line ...Continue Reading

[list_settings.list_name] Current TLEs

November 21st 2013 PST

HST 1 20580U 90037B 13324.21539543 .00004393 00000-0 29638-3 0 3779 2 20580 028.4719 329.6007 0002980 210.3541 232.6504 15.04222020 93204 ISS (ZARYA) 1 25544U 98067A 13325.42640256 .00001386 00000-0 31823-4 0 724 2 25544 051.6488 049.3082 0000847 087.1785 013.5694 15.50378933859098 CXO 1 25867U 99040B 13326.60315688 -.00000499 00000-0 00000+0 0 9770 2 25867 076.2480 330.5946 8391774 276.2684 359.7855 00.37797022 11136 ____________________________________________________________________ These 2-Line ...Continue Reading

[list_settings.list_name] Current TLEs

November 20th 2013 PST

HST 1 20580U 90037B 13324.21539543 .00004393 00000-0 29638-3 0 3779 2 20580 028.4719 329.6007 0002980 210.3541 232.6504 15.04222020 93204 ISS (ZARYA) 1 25544U 98067A 13324.46023163 .00017015 00000-0 30166-3 0 644 2 25544 051.6512 054.0914 0001105 099.9056 004.7476 15.50358074858940 CXO 1 25867U 99040B 13326.60315688 -.00000499 00000-0 00000+0 0 9770 2 25867 076.2480 330.5946 8391774 276.2684 359.7855 00.37797022 11136 ____________________________________________________________________ These 2-Line ...Continue Reading

[list_settings.list_name] Current TLEs

November 19th 2013 PST

HST 1 20580U 90037B 13322.49841644 .00004649 00000-0 31448-3 0 3760 2 20580 028.4717 340.8658 0003104 190.2207 296.6946 15.04209223 92954 ISS (ZARYA) 1 25544U 98067A 13323.49420385 .00016796 00000-0 29824-3 0 579 2 25544 051.6513 058.8804 0001032 093.4765 015.9913 15.50323647858797 CXO 1 25867U 99040B 13323.95813598 -.00000588 00000-0 00000+0 0 9766 2 25867 076.2282 330.7447 8395848 276.3021 359.6795 00.37800029 11129 ____________________________________________________________________ These 2-Line ...Continue Reading

[list_settings.list_name] Current TLEs

November 18th 2013 PST

HST 1 20580U 90037B 13321.22557103 .00005132 00000-0 34845-3 0 3755 2 20580 028.4717 349.2163 0003209 177.1187 243.5710 15.04197416 92753 ISS (ZARYA) 1 25544U 98067A 13322.45989318 -.00001485 00000-0 -17882-4 0 506 2 25544 051.6513 064.0063 0000898 071.2825 021.7694 15.50268518858632 CXO 1 25867U 99040B 13323.95813598 -.00000588 00000-0 00000+0 0 9766 2 25867 076.2282 330.7447 8395848 276.3021 359.6795 00.37800029 11129 ____________________________________________________________________ These 2-Line ...Continue Reading

[list_settings.list_name] Current TLEs

November 17th 2013 PST

HST 1 20580U 90037B 13321.22557103 .00005132 00000-0 34845-3 0 3755 2 20580 028.4717 349.2163 0003209 177.1187 243.5710 15.04197416 92753 ISS (ZARYA) 1 25544U 98067A 13321.36610707 .00026294 00000-0 46294-3 0 396 2 25544 051.6500 069.4269 0001245 097.8452 006.8090 15.50258912858464 CXO 1 25867U 99040B 13323.95813598 -.00000588 00000-0 00000+0 0 9766 2 25867 076.2282 330.7447 8395848 276.3021 359.6795 00.37800029 11129 ____________________________________________________________________ These 2-Line ...Continue Reading

[list_settings.list_name] Current TLEs

November 16th 2013 PST

HST 1 20580U 90037B 13319.51617826 .00003564 00000-0 23842-3 0 3744 2 20580 028.4718 000.4292 0003302 159.0696 346.8510 15.04183097 92509 ISS (ZARYA) 1 25544U 98067A 13320.39983233 .00014272 00000-0 25570-3 0 314 2 25544 051.6493 074.2095 0001016 112.3108 356.1621 15.50209804858314 CXO 1 25867U 99040B 13321.31409528 -.00000732 00000-0 00000+0 0 9758 2 25867 076.2153 330.9075 8398557 276.3265 359.7083 00.37801849 11116 ____________________________________________________________________ These 2-Line ...Continue Reading
  • This mailing list is a public mailing list - anyone may join or leave, at any time.
  • This mailing list is announce-only.

International Space Station (ISS) / Hubble Space Telescope (HST) / Chandra X-Ray Observatory Orbital Data via EMAIL

Privacy Policy:

Private list